Weather History for Baltimore, MD

Change the Weather History Date:

Thursday, August 29, 2013

  Actual Average Record
Temperature  
Mean Temperature 78 °F 73 °F  
Max Temperature 86 °F 83 °F 100 °F (1953)
Min Temperature 70 °F 63 °F 47 °F (1986)
Degree Days  
Heating Degree Days 0 0  
Month to date heating degree days 0 0  
Since 1 June heating degree days 0 15  
Since 1 July heating degree days 0 0  
Cooling Degree Days 13 9  
Month to date cooling degree days 263 300  
Year to date cooling degree days 1116 994  
Since 1 June cooling degree days 985 910  
Growing Degree Days 28 (Base 50)    
Moisture  
Dew Point 68 °F    
Average Humidity 71    
Maximum Humidity 93    
Minimum Humidity 48    
Precipitation  
Precipitation T in 0.10 in 2.51 in (1936)
Month to date precipitation 1.13 3.09  
Year to date precipitation 25.57 27.65  
Snow  
Snow 0.00 in 0.00 in - ()
Month to date snowfall 0.0 0.0  
Since 1 July snowfall 0.0 0.0  
Snow Depth 0.00 in    
Sea Level Pressure  
Sea Level Pressure 29.94 in    
Wind  
Wind Speed 8 mph (ENE)    
Max Wind Speed 14 mph    
Max Gust Speed 23 mph    
Visibility 7 miles    
Events Rain    
T = Trace of Precipitation, MM = Missing Value Source: NWS Daily Summary

Daily Weather History Graph

Daily Weather History Graph

Search for Another Location

Airport:

Trip Planner

Search our weather history database for the weather conditions in past years. The results will help you decide how hot, cold, wet, or windy it might be!

Date:

Astronomy

Aug. 29, 2013 Rise Set
Actual Time 6:32 AM EDT 7:41 PM EDT
Civil Twilight 6:05 AM EDT 8:09 PM EDT
Nautical Twilight 5:32 AM EDT 8:41 PM EDT
Astronomical Twilight 4:57 AM EDT 9:16 PM EDT
Moon 12:24 AM EDT (8/29) 3:07 PM EDT (8/29)
Length of Visible Light 14h 03m
Length of Day
13h 08m
Last Quarter, 38% of the Moon is Illuminated
Aug 29
Last Quarter
Sep 5
New
Sep 12
First Quarter
Sep 19
Full
Sep 26
Last Quarter

Hourly Weather History & Observations

Time (EDT) Temp. Heat Index Dew Point Humidity Pressure Visibility Wind Dir Wind Speed Gust Speed Precip Events Conditions
12:04 AM 73.4 °F - 69.8 °F 88% 29.85 in 10.0 mi NE 3.5 mph - N/A   Mostly Cloudy
12:54 AM 73.0 °F - 69.1 °F 87% 29.85 in 9.0 mi Calm Calm - N/A   Overcast
1:28 AM 73.4 °F - 69.8 °F 88% 29.85 in 6.0 mi Calm Calm - 0.00 in Rain Light Rain
1:40 AM 73.4 °F - 69.8 °F 88% 29.85 in 6.0 mi Calm Calm - 0.00 in Rain Light Rain
1:54 AM 73.0 °F - 71.1 °F 93% 29.85 in 7.0 mi NNE 8.1 mph - 0.00 in   Overcast
2:44 AM 73.4 °F - 69.8 °F 88% 29.86 in 7.0 mi NE 9.2 mph - 0.00 in   Overcast
2:54 AM 73.0 °F - 70.0 °F 90% 29.86 in 7.0 mi NE 6.9 mph - 0.00 in   Overcast
3:01 AM 73.4 °F - 69.8 °F 88% 29.86 in 6.0 mi NNE 6.9 mph - N/A   Overcast
3:15 AM 71.6 °F - 69.8 °F 94% 29.86 in 7.0 mi NE 6.9 mph - N/A   Overcast
3:20 AM 71.6 °F - 69.8 °F 94% 29.86 in 7.0 mi NE 8.1 mph - N/A   Overcast
3:41 AM 73.4 °F - 69.8 °F 88% 29.87 in 7.0 mi NNE 4.6 mph - N/A   Overcast
3:54 AM 73.0 °F - 69.1 °F 87% 29.86 in 7.0 mi NNE 8.1 mph - N/A   Overcast
4:16 AM 73.4 °F - 69.8 °F 88% 29.87 in 7.0 mi NE 10.4 mph - N/A   Overcast
4:54 AM 73.0 °F - 69.1 °F 87% 29.87 in 5.0 mi NE 8.1 mph - N/A   Overcast
5:54 AM 73.0 °F - 69.1 °F 87% 29.89 in 4.0 mi NNE 11.5 mph - N/A   Overcast
6:01 AM 73.4 °F - 69.8 °F 88% 29.90 in 4.0 mi NNE 8.1 mph - N/A   Overcast
6:54 AM 73.0 °F - 68.0 °F 84% 29.92 in 3.0 mi NE 9.2 mph - N/A   Haze
7:15 AM 73.4 °F - 68.0 °F 83% 29.92 in 2.5 mi NNE 10.4 mph 23.0 mph N/A   Haze
7:54 AM 73.9 °F - 68.0 °F 82% 29.94 in 2.5 mi NE 9.2 mph - N/A   Haze
8:08 AM 73.4 °F - 68.0 °F 83% 29.94 in 3.0 mi NE 9.2 mph - N/A   Haze
8:17 AM 73.4 °F - 68.0 °F 83% 29.95 in 3.0 mi NE 9.2 mph - N/A   Haze
8:29 AM 73.4 °F - 68.0 °F 83% 29.95 in 3.0 mi NE 11.5 mph - N/A   Haze
8:41 AM 75.2 °F - 68.0 °F 78% 29.96 in 3.0 mi NE 10.4 mph - N/A   Haze
8:54 AM 75.0 °F - 68.0 °F 79% 29.96 in 3.0 mi ENE 11.5 mph - N/A   Haze
9:54 AM 75.0 °F - 68.0 °F 79% 29.97 in 4.0 mi ENE 12.7 mph - N/A   Haze
10:28 AM 75.2 °F - 68.0 °F 78% 29.98 in 5.0 mi NNE 11.5 mph - N/A   Haze
10:54 AM 77.0 °F - 68.0 °F 74% 29.98 in 6.0 mi NE 8.1 mph - N/A   Haze
11:54 AM 79.0 °F - 66.9 °F 66% 29.99 in 6.0 mi NE 12.7 mph - N/A   Haze
12:54 PM 80.1 °F 82.3 °F 66.9 °F 64% 29.99 in 6.0 mi ENE 10.4 mph - N/A   Haze
1:17 PM 80.6 °F 82.7 °F 66.2 °F 61% 29.99 in 6.0 mi ENE 11.5 mph - N/A   Haze
1:54 PM 82.0 °F 84.1 °F 66.0 °F 58% 29.99 in 6.0 mi ENE 8.1 mph - N/A   Haze
2:54 PM 86.0 °F 87.3 °F 64.0 °F 48% 29.98 in 7.0 mi NNE 10.4 mph 16.1 mph N/A   Scattered Clouds
3:54 PM 82.9 °F 84.6 °F 64.9 °F 54% 29.98 in 10.0 mi East 8.1 mph - N/A   Mostly Cloudy
4:54 PM 82.9 °F 84.4 °F 64.0 °F 53% 29.97 in 10.0 mi North 5.8 mph - N/A   Scattered Clouds
5:54 PM 82.0 °F 84.9 °F 68.0 °F 62% 29.97 in 10.0 mi ESE 8.1 mph - N/A   Partly Cloudy
6:54 PM 81.0 °F 83.3 °F 66.9 °F 62% 29.98 in 10.0 mi ESE 5.8 mph - N/A   Partly Cloudy
7:54 PM 79.0 °F - 66.0 °F 64% 30.00 in 10.0 mi East 6.9 mph - N/A   Mostly Cloudy
8:52 PM 77.0 °F - 68.0 °F 74% 30.01 in 10.0 mi SE 3.5 mph - N/A   Scattered Clouds
8:54 PM 77.0 °F - 68.0 °F 74% 30.01 in 10.0 mi SE 3.5 mph - N/A   Scattered Clouds
9:54 PM 75.0 °F - 69.1 °F 82% 30.02 in 10.0 mi South 3.5 mph - N/A   Scattered Clouds
10:36 PM 73.4 °F - 69.8 °F 88% 30.02 in 9.0 mi South 3.5 mph - N/A   Mostly Cloudy
10:54 PM 73.9 °F - 69.1 °F 85% 30.02 in 10.0 mi SSE 4.6 mph - N/A   Mostly Cloudy
11:54 PM 72.0 °F - 68.0 °F 87% 30.03 in 10.0 mi SE 4.6 mph - N/A   Mostly Cloudy